Time,TemperatureF,DewpointF,PressureIn,WindDirection,WindDirectionDegrees,WindSpeedMPH,WindSpeedGustMPH,Humidity,HourlyPrecipIn,Conditions,Clouds,dailyrainin,SolarRadiationWatts/m^2,SoftwareType,DateUTC
2013-03-11 00:12:00,32.0,32.0,-100.00,NE,48,10.0,17.0,100,0.08,,,0.61,0.000000,,2013-03-11 05:12:00,
2013-03-11 00:22:00,32.0,32.0,-100.00,NE,48,10.0,17.0,100,0.08,,,0.61,0.000000,,2013-03-11 05:22:00,
2013-03-11 00:32:00,32.0,32.0,-100.00,NE,48,10.0,17.0,100,0.08,,,0.61,0.000000,,2013-03-11 05:32:00,
2013-03-11 00:42:00,32.0,32.0,-100.00,NE,48,10.0,17.0,100,0.08,,,0.61,0.000000,,2013-03-11 05:42:00,
2013-03-11 01:12:00,32.0,32.0,-100.00,NE,34,8.0,19.0,100,0.01,,,0.61,0.000000,,2013-03-11 06:12:00,
2013-03-11 01:22:00,32.0,32.0,-100.00,NE,34,8.0,19.0,100,0.01,,,0.61,0.000000,,2013-03-11 06:22:00,
2013-03-11 01:32:00,32.0,32.0,-100.00,NE,34,8.0,19.0,100,0.01,,,0.61,0.000000,,2013-03-11 06:32:00,
2013-03-11 01:42:00,32.0,32.0,-100.00,NE,34,8.0,19.0,100,0.01,,,0.61,0.000000,,2013-03-11 06:42:00,
2013-03-11 02:12:00,31.0,31.0,-100.00,North,360,4.0,12.0,100,0.01,,,0.62,0.000000,,2013-03-11 07:12:00,
2013-03-11 02:22:00,31.0,31.0,-100.00,North,360,4.0,12.0,100,0.01,,,0.62,0.000000,,2013-03-11 07:22:00,
2013-03-11 02:32:00,31.0,31.0,-100.00,North,360,4.0,12.0,100,0.01,,,0.62,0.000000,,2013-03-11 07:32:00,
2013-03-11 02:42:00,31.0,31.0,-100.00,North,360,4.0,12.0,100,0.01,,,0.62,0.000000,,2013-03-11 07:42:00,
2013-03-11 03:12:00,30.0,30.0,-100.00,NNW,346,7.0,11.0,100,0.00,,,0.62,0.000000,,2013-03-11 08:12:00,
2013-03-11 03:22:00,30.0,30.0,-100.00,NNW,346,7.0,11.0,100,0.00,,,0.62,0.000000,,2013-03-11 08:22:00,
2013-03-11 03:32:00,30.0,30.0,-100.00,NNW,346,7.0,11.0,100,0.00,,,0.62,0.000000,,2013-03-11 08:32:00,
2013-03-11 03:42:00,30.0,30.0,-100.00,NNW,346,7.0,11.0,100,0.00,,,0.62,0.000000,,2013-03-11 08:42:00,
2013-03-11 04:12:00,30.0,30.0,-100.00,NW,326,8.0,12.0,100,0.00,,,0.62,0.000000,,2013-03-11 09:12:00,
2013-03-11 04:23:00,30.0,30.0,-100.00,NW,326,8.0,12.0,100,0.00,,,0.62,0.000000,,2013-03-11 09:23:00,
2013-03-11 04:32:00,30.0,30.0,-100.00,NW,326,8.0,12.0,100,0.00,,,0.62,0.000000,,2013-03-11 09:32:00,
2013-03-11 04:42:00,30.0,30.0,-100.00,NW,326,8.0,12.0,100,0.00,,,0.62,0.000000,,2013-03-11 09:42:00,
2013-03-11 05:12:00,30.0,30.0,-100.00,NNW,328,9.0,12.0,99,0.00,,,0.62,0.000000,,2013-03-11 10:12:00,
2013-03-11 05:22:00,30.0,30.0,-100.00,NNW,328,9.0,12.0,99,0.00,,,0.62,0.000000,,2013-03-11 10:22:00,
2013-03-11 05:32:00,30.0,30.0,-100.00,NNW,328,9.0,12.0,99,0.00,,,0.62,0.000000,,2013-03-11 10:32:00,
2013-03-11 05:42:00,30.0,30.0,-100.00,NNW,328,9.0,12.0,99,0.00,,,0.62,0.000000,,2013-03-11 10:42:00,
2013-03-11 06:12:00,29.0,29.0,-100.00,NW,318,7.0,13.0,99,0.00,,,0.62,0.000000,,2013-03-11 11:12:00,
2013-03-11 06:22:00,29.0,29.0,-100.00,NW,318,7.0,13.0,99,0.00,,,0.62,0.000000,,2013-03-11 11:22:00,
2013-03-11 06:32:00,29.0,29.0,-100.00,NW,318,7.0,13.0,99,0.00,,,0.62,0.000000,,2013-03-11 11:32:00,
2013-03-11 06:42:00,29.0,29.0,-100.00,NW,318,7.0,13.0,99,0.00,,,0.62,0.000000,,2013-03-11 11:42:00,
2013-03-11 07:12:00,29.0,29.0,-100.00,NW,308,7.0,9.0,98,0.00,,,-99.99,0.000000,,2013-03-11 12:12:00,
2013-03-11 07:22:00,29.0,29.0,-100.00,NW,308,7.0,9.0,98,0.00,,,-99.99,0.000000,,2013-03-11 12:22:00,
2013-03-11 07:32:00,29.0,29.0,-100.00,NW,308,7.0,9.0,98,0.00,,,-99.99,0.000000,,2013-03-11 12:32:00,
2013-03-11 07:43:00,29.0,29.0,-100.00,NW,308,7.0,9.0,98,0.00,,,-99.99,0.000000,,2013-03-11 12:43:00,
2013-03-11 08:12:00,29.0,29.0,-100.00,NW,315,6.0,10.0,98,0.00,,,-99.99,1.000000,,2013-03-11 13:12:00,
2013-03-11 08:22:00,29.0,29.0,-100.00,NW,315,6.0,10.0,98,0.00,,,-99.99,1.000000,,2013-03-11 13:22:00,
2013-03-11 08:32:00,29.0,29.0,-100.00,NW,315,6.0,10.0,98,0.00,,,-99.99,1.000000,,2013-03-11 13:32:00,
2013-03-11 08:42:00,29.0,29.0,-100.00,NW,315,6.0,10.0,98,0.00,,,-99.99,1.000000,,2013-03-11 13:42:00,
2013-03-11 09:12:00,31.0,31.0,-100.00,NNW,328,6.0,9.0,98,0.00,,,0.61,10.000000,,2013-03-11 14:12:00,
2013-03-11 09:22:00,31.0,31.0,-100.00,NNW,328,6.0,9.0,98,0.00,,,0.61,10.000000,,2013-03-11 14:22:00,
2013-03-11 09:33:00,31.0,31.0,-100.00,NNW,328,6.0,9.0,98,0.00,,,0.61,10.000000,,2013-03-11 14:33:00,
2013-03-11 09:42:00,31.0,31.0,-100.00,NNW,328,6.0,9.0,98,0.00,,,0.61,10.000000,,2013-03-11 14:42:00,
2013-03-11 10:12:00,33.0,31.0,-100.00,NNW,330,8.0,12.0,94,0.00,,,0.51,29.000000,,2013-03-11 15:12:00,
2013-03-11 10:22:00,33.0,31.0,-100.00,NNW,330,8.0,12.0,94,0.00,,,0.51,29.000000,,2013-03-11 15:22:00,
2013-03-11 10:32:00,33.0,31.0,-100.00,NNW,330,8.0,12.0,94,0.00,,,0.51,29.000000,,2013-03-11 15:32:00,
2013-03-11 10:42:00,33.0,31.0,-100.00,NNW,330,8.0,12.0,94,0.00,,,0.51,29.000000,,2013-03-11 15:42:00,
2013-03-11 11:12:00,35.0,31.0,-100.00,NNW,344,7.0,14.0,86,0.00,,,0.51,70.000000,,2013-03-11 16:12:00,
2013-03-11 11:22:00,35.0,31.0,-100.00,NNW,344,7.0,14.0,86,0.00,,,0.51,70.000000,,2013-03-11 16:22:00,
2013-03-11 11:32:00,35.0,31.0,-100.00,NNW,344,7.0,14.0,86,0.00,,,0.51,70.000000,,2013-03-11 16:32:00,
2013-03-11 11:43:00,35.0,31.0,-100.00,NNW,344,7.0,14.0,86,0.00,,,0.51,70.000000,,2013-03-11 16:43:00,
2013-03-11 12:02:00,35.0,31.0,-100.00,NNW,340,8.0,15.0,85,0.00,,,-99.99,58.000000,,2013-03-11 17:02:00,
2013-03-11 12:15:00,35.0,31.0,-100.00,NNW,340,8.0,15.0,85,0.00,,,-99.99,58.000000,,2013-03-11 17:15:00,
2013-03-11 12:26:00,35.0,31.0,-100.00,NNW,340,8.0,15.0,85,0.00,,,-99.99,58.000000,,2013-03-11 17:26:00,
2013-03-11 12:35:00,35.0,31.0,-100.00,NNW,340,8.0,15.0,85,0.00,,,-99.99,58.000000,,2013-03-11 17:35:00,
2013-03-11 12:42:00,35.0,31.0,-100.00,NNW,340,8.0,15.0,85,0.00,,,-99.99,58.000000,,2013-03-11 17:42:00,
2013-03-11 13:12:00,33.0,30.0,-100.00,NW,325,8.0,15.0,88,0.00,,,0.50,44.000000,,2013-03-11 18:12:00,
2013-03-11 13:23:00,33.0,30.0,-100.00,NW,325,8.0,15.0,88,0.00,,,0.50,44.000000,,2013-03-11 18:23:00,
2013-03-11 13:32:00,33.0,30.0,-100.00,NW,325,8.0,15.0,88,0.00,,,0.50,44.000000,,2013-03-11 18:32:00,
2013-03-11 13:42:00,33.0,30.0,-100.00,NW,325,8.0,15.0,88,0.00,,,0.50,44.000000,,2013-03-11 18:42:00,
2013-03-11 14:12:00,33.0,30.0,-100.00,NW,312,9.0,14.0,89,0.00,,,0.50,50.000000,,2013-03-11 19:12:00,
2013-03-11 14:22:00,33.0,30.0,-100.00,NW,312,9.0,14.0,89,0.00,,,0.50,50.000000,,2013-03-11 19:22:00,
2013-03-11 14:32:00,33.0,30.0,-100.00,NW,312,9.0,14.0,89,0.00,,,0.50,50.000000,,2013-03-11 19:32:00,
2013-03-11 14:42:00,33.0,30.0,-100.00,NW,312,9.0,14.0,89,0.00,,,0.50,50.000000,,2013-03-11 19:42:00,
2013-03-11 15:12:00,32.0,29.0,-100.00,NW,307,11.0,17.0,89,0.00,,,0.50,61.000000,,2013-03-11 20:12:00,
2013-03-11 15:22:00,32.0,29.0,-100.00,NW,307,11.0,17.0,89,0.00,,,0.50,61.000000,,2013-03-11 20:22:00,
2013-03-11 15:32:00,32.0,29.0,-100.00,NW,307,11.0,17.0,89,0.00,,,0.50,61.000000,,2013-03-11 20:32:00,
2013-03-11 15:43:00,32.0,29.0,-100.00,NW,307,11.0,17.0,89,0.00,,,0.50,61.000000,,2013-03-11 20:43:00,
2013-03-11 16:12:00,31.0,28.0,-100.00,NW,319,13.0,20.0,89,0.00,,,0.50,48.000000,,2013-03-11 21:12:00,
2013-03-11 16:22:00,31.0,28.0,-100.00,NW,319,13.0,20.0,89,0.00,,,0.50,48.000000,,2013-03-11 21:22:00,
2013-03-11 16:32:00,31.0,28.0,-100.00,NW,319,13.0,20.0,89,0.00,,,0.50,48.000000,,2013-03-11 21:32:00,
2013-03-11 16:43:00,31.0,28.0,-100.00,NW,319,13.0,20.0,89,0.00,,,0.50,48.000000,,2013-03-11 21:43:00,
2013-03-11 17:12:00,31.0,28.0,-100.00,NW,310,11.0,19.0,89,0.00,,,0.47,30.000000,,2013-03-11 22:12:00,
2013-03-11 17:22:00,31.0,28.0,-100.00,NW,310,11.0,19.0,89,0.00,,,0.47,30.000000,,2013-03-11 22:22:00,
2013-03-11 17:32:00,31.0,28.0,-100.00,NW,310,11.0,19.0,89,0.00,,,0.47,30.000000,,2013-03-11 22:32:00,
2013-03-11 17:43:00,31.0,28.0,-100.00,NW,310,11.0,19.0,89,0.00,,,0.47,30.000000,,2013-03-11 22:43:00,
2013-03-11 18:12:00,31.0,29.0,-100.00,NW,308,8.0,17.0,93,0.00,,,0.42,28.000000,,2013-03-11 23:12:00,
2013-03-11 18:22:00,31.0,29.0,-100.00,NW,308,8.0,17.0,93,0.00,,,0.42,28.000000,,2013-03-11 23:22:00,
2013-03-11 18:32:00,31.0,29.0,-100.00,NW,308,8.0,17.0,93,0.00,,,0.42,28.000000,,2013-03-11 23:32:00,
2013-03-11 18:43:00,31.0,29.0,-100.00,NW,308,8.0,17.0,93,0.00,,,0.42,28.000000,,2013-03-11 23:43:00,
2013-03-11 19:12:00,29.0,27.0,-100.00,NW,306,14.0,22.0,93,0.00,,,0.37,17.000000,,2013-03-12 00:12:00,
2013-03-11 19:23:00,29.0,27.0,-100.00,NW,306,14.0,22.0,93,0.00,,,0.37,17.000000,,2013-03-12 00:23:00,
2013-03-11 19:33:00,29.0,27.0,-100.00,NW,306,14.0,22.0,93,0.00,,,0.37,17.000000,,2013-03-12 00:33:00,
2013-03-11 19:42:00,29.0,27.0,-100.00,NW,306,14.0,22.0,93,0.00,,,0.37,17.000000,,2013-03-12 00:42:00,
2013-03-11 20:12:00,29.0,26.0,-100.00,NW,310,10.0,20.0,90,0.00,,,0.34,2.000000,,2013-03-12 01:12:00,
2013-03-11 20:22:00,29.0,26.0,-100.00,NW,310,10.0,20.0,90,0.00,,,0.34,2.000000,,2013-03-12 01:22:00,
2013-03-11 20:33:00,29.0,26.0,-100.00,NW,310,10.0,20.0,90,0.00,,,0.34,2.000000,,2013-03-12 01:33:00,
2013-03-11 20:42:00,29.0,26.0,-100.00,NW,310,10.0,20.0,90,0.00,,,0.34,2.000000,,2013-03-12 01:42:00,
2013-03-11 21:12:00,28.0,25.0,-100.00,WNW,299,10.0,18.0,89,0.00,,,0.29,0.000000,,2013-03-12 02:12:00,
2013-03-11 21:22:00,28.0,25.0,-100.00,WNW,299,10.0,18.0,89,0.00,,,0.29,0.000000,,2013-03-12 02:22:00,
2013-03-11 21:32:00,28.0,25.0,-100.00,WNW,299,10.0,18.0,89,0.00,,,0.29,0.000000,,2013-03-12 02:32:00,
2013-03-11 21:42:00,28.0,25.0,-100.00,WNW,299,10.0,18.0,89,0.00,,,0.29,0.000000,,2013-03-12 02:42:00,
2013-03-11 22:12:00,27.0,23.0,-100.00,NW,310,10.0,18.0,86,0.00,,,0.21,0.000000,,2013-03-12 03:12:00,
2013-03-11 22:22:00,27.0,23.0,-100.00,NW,310,10.0,18.0,86,0.00,,,0.21,0.000000,,2013-03-12 03:22:00,
2013-03-11 22:32:00,27.0,23.0,-100.00,NW,310,10.0,18.0,86,0.00,,,0.21,0.000000,,2013-03-12 03:32:00,
2013-03-11 22:42:00,27.0,23.0,-100.00,NW,310,10.0,18.0,86,0.00,,,0.21,0.000000,,2013-03-12 03:42:00,
2013-03-11 23:13:00,26.0,22.0,-100.00,NW,306,10.0,14.0,86,0.00,,,0.10,0.000000,,2013-03-12 04:13:00,
2013-03-11 23:22:00,26.0,22.0,-100.00,NW,306,10.0,14.0,86,0.00,,,0.10,0.000000,,2013-03-12 04:22:00,
2013-03-11 23:32:00,26.0,22.0,-100.00,NW,306,10.0,14.0,86,0.00,,,0.10,0.000000,,2013-03-12 04:32:00,
2013-03-11 23:43:00,26.0,22.0,-100.00,NW,306,10.0,14.0,86,0.00,,,0.10,0.000000,,2013-03-12 04:43:00,